Terug naar catalogus

STARLINK-32453

ActiefCommunicatieVLEO
NORAD 61671·PAYLOAD·🇺🇸 United States

Gelanceerd Oct 26, 2024 vanaf Cape Canaveral Space Force Station

Loading…

Volgende Passages (komende 24 uur)

TLE

VersSource: CelesTrak SupGP

Epoch: Sep 15, 2026, 03:24 UTC

1 61671C 24193L   26258.14215278 -.00000903  00000+0 -29036-4 0  2588
2 61671  53.1570 290.1515 0001305  92.6141 314.4003 15.31709827    18

Volg STARLINK-32453 in realtime met AllMySat

Download on the App Store